{"data":{"norad_id":39441,"intl_designator":"2013-066AB","name":"NEE-02 KRYSAOR","alt_names":[],"object_type":"PAYLOAD","status":"ACTIVE","operator":null,"country":"ECU","launch_date":"2013-11-21","launch_site_code":"DLS","launch_vehicle":null,"mission":null,"orbit_class":"UNKNOWN","rcs_meters":0.0098,"size_class":null,"mass_kg":null,"dimensions":null,"purposes":["tech_demo"],"wikipedia_slug":null,"has_3d_model":false,"image_url":null,"decayed_at":null,"tle_current":{"epoch":"2026-05-24T18:50:36.076128Z","epoch_age_seconds":100374,"freshness":"FRESH","line1":"1 39441U 13066AB  26144.78513977  .00001318  00000+0  14932-3 0  9995","line2":"2 39441  97.8887  84.1704 0066999 145.3315 215.2296 14.86510715672724","mean_motion":14.86510715,"eccentricity":0.0066999,"inclination_deg":97.8887,"raan_deg":84.1704,"arg_perigee_deg":145.3315,"mean_anomaly_deg":215.2296,"bstar":0.00014932,"rev_number":67272,"period_min":96.871148352267,"perigee_km":562.03591660576,"apogee_km":655.66011844359,"semimajor_km":6986.9850175247,"source":"CELESTRAK","updated_at":"2026-05-25T13:38:25.494539Z"}}}